Regional Weather Roundup
Issued by NWS

Home | Current Version | Previous Version | Graphics & Text | Print | Product List | Glossary On
Versions: 1 2 3 4 5 6 7 8 9 10 11 12 13 14 15 16 17 18 19 20 21 22 23 24 25 26 27 28 29 30 31 32 33 34 35 36 37 38 39 40 41 42 43 44 45 46 47 48 49 50
000
ASUS43 KLOT 310300
RWRIL

ILLINOIS REGIONAL WEATHER ROUNDUP
NATIONAL WEATHER SERVICE CHICAGO/ROMEOVILLE IL
1000 PM CDT THU JUL 30 2015

NOTE: "FAIR" INDICATES FEW OR NO CLOUDS BELOW 12,000 FEET WITH NO
SIGNIFICANT WEATHER AND/OR OBSTRUCTIONS TO VISIBILITY.

* THESE STATIONS ARE NOT UNDER NWS QUALITY CONTROL. THEY ALSO MAY NOT
  REPORT WEATHER SUCH AS PRECIPITATION OR FOG.

ILZ001-002-007-009-015-016-024-310400-
NORTHWEST ILLINOIS

CITY           SKY/WX    TMP DP  RH WIND       PRES   REMARKS
MOLINE         CLEAR     73  66  78 SW5       30.06R
STERLING*      CLEAR     72  64  78 NW5       30.03R
$$

ILZ003-004-008-010-011-017-018-310400-
NORTH CENTRAL ILLINOIS

CITY           SKY/WX    TMP DP  RH WIND       PRES   REMARKS
ROCKFORD       CLEAR     72  59  63 W5        30.05R
$$

ILZ005-006-012>014-019>023-310400-
NORTHEAST ILLINOIS

CITY           SKY/WX    TMP DP  RH WIND       PRES   REMARKS
CHICAGO-OHARE  CLEAR     78  60  53 W10       30.01R
CHICAGO-MIDWAY CLEAR     80  60  50 W7        30.01R HX  81
AURORA         CLEAR     71  63  75 W7        30.04R
WAUKEGAN       CLEAR     72  58  61 VRB3      29.99R
DUPAGE AIRPORT CLEAR     73  62  68 SW7       30.02R
WHEELING       CLEAR     79  59  50 W6        30.01R HX  80
NORTHERLY ISL    N/A     81  57  43 W6          N/A  HX  81
$$

LMZ740>746-310400-
SOUTHERN LAKE MICHIGAN

STATION/POSITION SKY/WX   TEMP    WIND        PRES    VSBY  WAVE
                          AIR SEA DIR/SP/G                  HT/PER
                          (F)     (DEG/KT/KT) (MB)    (MI)  (FT/S)
HARRISON CRIB              82     260/ 12/ 14   N/A
BURNHAM HARBOR             82     240/  2/ 16   N/A
CALUMET HARBOR             81     230/  4/  8   N/A
BURNS HARBOR               79     270/ 11/ 14 1015.9F
MICHIGAN CITY              77     190/  6/  7   N/A
MICHIGAN CITY 6N           77 75  220/  4/  6   N/A           1
ST. JOSEPH                 76 74  260/  8/  8   N/A           1/ 3
$$

ILZ025>027-034>036-040-047-049-050-058-095>099-310400-
WEST-CENTRAL ILLINOIS

CITY           SKY/WX    TMP DP  RH WIND       PRES   REMARKS
QUINCY         CLEAR     74  66  76 SW6       30.11R
MACOMB*        CLEAR     70  67  92 W6        30.11R
$$

ILZ028>032-037-038-041>044-048-051>054-059>061-310400-
CENTRAL ILLINOIS

CITY           SKY/WX    TMP DP  RH WIND       PRES   REMARKS
DECATUR        CLEAR     78  65  63 W6        30.09R HX  80
PEORIA         CLEAR     76  65  68 W3        30.07R
SPRINGFIELD    CLEAR     73  67  81 W6        30.09R
TAYLORVILLE    NOT AVBL
$$

ILZ033-039-045-046-055>057-062-063-310400-
EAST-CENTRAL ILLINOIS

CITY           SKY/WX    TMP DP  RH WIND       PRES   REMARKS
CHAMPAIGN      CLEAR     71  66  84 W3        30.08R
MATTOON        CLEAR     74  63  68 W6        30.08R
$$

ILZ079-100>102-310400-
SOUTHWEST ILLINOIS

CITY           SKY/WX    TMP DP  RH WIND       PRES   REMARKS
ALTON          PTCLDY    72  66  83 CALM      30.11
BELLEVILLE     CLEAR     73  70  89 CALM      30.10R
CAHOKIA*       CLEAR     73  67  81 CALM      30.11R
SPARTA*        PTCLDY    75  67  77 CALM      30.13R
$$

ILZ064>066-069>071-074>076-080>082-084>086-088>090-092>094-310400-
SOUTH-CENTRAL ILLINOIS

CITY           SKY/WX    TMP DP  RH WIND       PRES   REMARKS
CARBONDALE     PTCLDY    72  68  87 CALM      30.11R
MT. VERNON     PTCLDY    70  63  78 CALM      30.12R
SALEM*         FAIR      73  68  82 CALM      30.12R
$$

ILZ067-068-072-073-078-083-087-091-310400-
SOUTHEAST ILLINOIS

CITY           SKY/WX    TMP DP  RH WIND       PRES   REMARKS
LAWRENCEVILLE  PTCLDY    74  67  78 W6        30.09R
HARRISBURG*    CLEAR     72  69  91 CALM      30.12R
$$

ABBREVIATIONS USED IN REMARKS
   TC - TEMPERATURE IN CELSIUS
  WCI - WIND CHILL INDEX
   HX - HEAT INDEX
  VSB - VISIBILITY
$$




USA.gov is the U.S. government's official web portal to all federal, state and local government web resources and services.